Location: Krakow
(50.0830°N, 19.9170°E)
Time: 11:01:42
(UTC+02:00)

ACS3 Solar Sail - Pass Details

Date: 27 May 2026
Orbit: 877 x 953 km, 97.2° (Epoch: 8 June)

Event Time Altitude Azimuth Distance (km) Brightness Sun altitude
Rises 03:06:55 0° 3° (N) 3,486 5.8 -11.4°
Reaches altitude 10° 03:09:54 10° 348° (NNW) 2,543 4.6 -11.1°
Maximum altitude 03:13:53 20° 303° (WNW) 1,913 3.3 -10.7°
Drops below altitude 10° 03:17:52 10° 257° (WSW) 2,544 3.5 -10.3°
Enters shadow 03:18:43 - 252° (WSW) 2,787 3.7 -10.2°
